Regional Weather Roundup
Issued by NWS Albany, NY

Home | Current Version | Previous Version | Graphics & Text | Print | Product List | Glossary Off
Versions: 1 2 3 4 5 6 7 8 9 10 11 12 13 14 15 16 17 18 19 20 21 22 23 24 25 26 27 28 29 30 31 32 33 34 35 36 37 38 39 40 41 42 43 44 45 46 47 48

000
ASUS41 KALY 211110
RWRALY

NEW YORK STATE HOURLY WEATHER ROUNDUP
NATIONAL WEATHER SERVICE ALBANY NY
600 AM EST SUN DEC 21 2014

NOTE: "FAIR" INDICATES FEW OR NO CLOUDS BELOW 12,000 FEET WITH NO
SIGNIFICANT WEATHER AND/OR NO OBSTRUCTIONS TO VISIBILITY.

NYZ032-033-038>043-046>054-057>066-NYZ062>081-211200-
EAST


CITY           SKY/WX    TMP DP  RH WIND       PRES   REMARKS
ALBANY         FLURRIES  28  20  71 N3        30.32R
GLENS FALLS    CLOUDY    24  19  81 E3        30.32R
POUGHKEEPSIE   CLOUDY    29  24  82 N3        30.29S
NEWBURGH       CLOUDY    27  27 100 CALM      30.28R
MONTGOMERY     CLOUDY    28  25  88 N3        30.27S
WHITE PLAINS   MOCLDY    29  24  82 NW7       30.25R WCI  22
ISLIP          CLOUDY    33  26  75 W7        30.26R WCI  27
NEW YORK CITY  CLOUDY    32  25  75 VRB3      30.28R
CENTRAL PARK   CLOUDY    31  24  75 VRB3      30.30R
$$

NYZ005>009-017-018-044>046-055-056-211200-
CENTRAL


CITY           SKY/WX    TMP DP  RH WIND       PRES   REMARKS
FULTON         CLOUDY    26  21  81 CALM      30.29R
SYRACUSE       FLURRIES  26  24  92 CALM      30.30R
ROME           CLOUDY    26  21  81 NE3       30.31S
ELMIRA         CLOUDY    29  22  75 CALM      30.26S
BINGHAMTON     CLOUDY    24  20  84 W3        30.21S
MONTICELLO     CLOUDY    25  25 100 W3        30.23R
$$

NYZ026>034-041>043-211200-
NORTH


CITY           SKY/WX    TMP DP  RH WIND       PRES   REMARKS
WATERTOWN      CLOUDY    26  20  77 NE3       30.30R
FORT DRUM      NOT AVBL
MASSENA        CLOUDY    14  11  87 E8        30.35S WCI   3
SARANAC LAKE   CLOUDY    16  32 100 CALM      30.20R
PLATTSBURGH    CLOUDY    17  15  92 N3        30.34S
$$

NYZ001>004-010>016-019>021-211200-
WEST


CITY           SKY/WX    TMP DP  RH WIND       PRES   REMARKS
NIAGARA FALLS  CLOUDY    25  22  88 CALM      30.28R
BUFFALO        CLOUDY    28  22  78 CALM      30.27R
DUNKIRK        CLOUDY    30  23  75 SW5       30.29R WCI  25
JAMESTOWN      CLOUDY    25  19  80 SW3       30.23R
WELLSVILLE     CLOUDY    24  21  88 W5        30.21R WCI  18
ROCHESTER      CLOUDY    27  23  85 SW3       30.29R
PENN YAN       CLOUDY    29  22  75 SW3       30.26R
$$

             KEY
       WCI = WIND CHILL INDEX
       VSB = VISIBILITY
       HX  = HEAT INDEX
$$


USA.gov is the U.S. government's official web portal to all federal, state and local government web resources and services.